Regional Weather Roundup
Issued by NWS Kansas City/Pleasant Hill, MO

Home | Current Version | Previous Version | Graphics & Text | Print | Product List | Glossary Off
Versions: 1 2 3 4 5 6 7 8 9 10 11 12 13 14 15 16 17 18 19 20 21 22 23 24 25 26 27 28 29 30 31 32 33 34 35 36 37 38 39 40 41 42 43 44 45 46 47 48 49 50

000
ASUS43 KEAX 290210
RWREAX

WEATHER ROUNDUP FOR EASTERN KANSAS AND NORTHWEST MISSOURI
NATIONAL WEATHER SERVICE KANSAS CITY/PLEASANT HILL MO
900 PM CDT THU APR 28 2016

KSZ040-057-103>105-MOZ028-029-037-043-290300-
...KANSAS CITY METROPOLITAN AREA...

CITY           SKY/WX    TMP DP  RH WIND       PRES   REMARKS
K.C. INTL      CLOUDY    51  46  83 N5        30.03R
K.C. DOWNTOWN  CLEAR     54  45  71 N6        30.02R
LEES SUMMIT    CLEAR     52  45  77 N7        30.03R
OLATHE - IXD   CLEAR     51  46  83 N7        30.02R
OLATHE - OJC   CLEAR     53  45  74 N7        30.02R
LAWRENCE       CLEAR     51  45  79 NE5       30.03R

$$

MOZ001>008-011>017-020>025-030>033-038>040-044>046-053-054-290300-
...NORTHERN AND CENTRAL MISSOURI...

CITY           SKY/WX    TMP DP  RH WIND       PRES   REMARKS
ST. JOSEPH     CLOUDY    53  46  77 NW3       30.04R
MOSBY          CLOUDY    54  46  76 N5        30.03S
WARRENSBURG    CLEAR     52  45  76 N6        30.02S
WHITEMAN AFB   NOT AVBL
CLINTON        CLEAR     57  50  77 NE9       30.01R
SEDALIA        CLEAR     55  49  80 N8        30.03R
WARSAW         NOT AVBL
CHILLICOTHE      N/A     54  46  74 NW5       30.04R
KIRKSVILLE     CLOUDY    54  45  71 W6        30.03R

$$

MOZ041-047>049-056>058-063>065-088>090-097-290300-
...EASTERN AND SOUTHERN MISSOURI...

CITY           SKY/WX    TMP DP  RH WIND       PRES   REMARKS
ST. LOUIS INTL CLEAR     61  49  64 N7        30.00R
SPIRIT OF STL  CLEAR     61  50  67 N3        30.00R
COLUMBIA       CLEAR     56  49  77 N7        30.01R
JEFFERSON CITY CLEAR     59  49  69 NW5       30.00R
ROLLA          CLEAR     59  51  75 N6        29.98R
OSAGE BEACH    CLEAR     61  43  51 N3        30.00R
SPRINGFIELD    CLEAR     62  47  57 NE6       29.98R
BRANSON        PTCLDY    66  45  45 CALM      29.98R
JOPLIN         PTCLDY    61  50  67 NE5       29.97R
WEST PLAINS    CLEAR     62  45  53 N3        29.99R

$$

IAZ060-094-KSZ022-034>040-054-083-096-NEZ052-066-093-290300-
...KANSAS...SOUTHEAST NEBRASKA AND IOWA...

CITY           SKY/WX    TMP DP  RH WIND       PRES   REMARKS
TOPEKA         PTCLDY    53  45  74 N5        30.03R
MANHATTAN      PTCLDY    53  44  71 NE7       30.03R
EMPORIA        PTCLDY    57  48  72 NE9       30.00R
CHANUTE        PTCLDY    61  49  64 NE6       29.97R
WICHITA        CLOUDY    62  48  60 NE12      29.98R
OMAHA          CLOUDY    47  41  80 N10       30.06R
LINCOLN        CLOUDY    49  41  74 N9        30.07R
FALLS CITY     CLOUDY    52  42  69 N7        30.04R
LAMONI         CLOUDY    49  44  83 NW10      30.04R
DES MOINES     CLOUDY    50  45  83 NW9       30.00R

$$




USA.gov is the U.S. government's official web portal to all federal, state and local government web resources and services.